Date String (YYYY-MM-DD hh:mm:ss) UTC,Instrument flags,Ambient pressure (hPa),Sample flow (lpm),Bypass flow (lpm),Sample temperature (°C),Ambient temperature (°C),ASC tube jacket temperature (°C),LED temperature (°C),Box temperature (°C),Sample RH (%),Span deviation,Mass concentration (μg/m³),Mass concentration (μg/m³),Mass concentration (μg/m³)
DateTimeUTC,F1_M11,P_M11,Q1_M11,Q2_M11,T1_M11,T2_M11,T3_M11,T4_M11,T5_M11,U1_M11,ZSPAN_M11,X0_M11,X2_M11,X1_M11
2021-09-21 06:00:00,,0837.2,5.01,0.00,29.9,29.1,00.0,39.0,31.7,17.3,0000.0,0003.40,0001.93,0001.59
2021-09-21 06:01:00,,0837.2,5.00,0.00,29.9,29.1,00.0,39.0,31.7,17.1,0000.0,0002.94,0001.97,0001.60
2021-09-21 06:02:00,,0837.2,5.00,0.00,29.9,29.1,00.0,39.0,31.7,17.2,0000.0,0003.04,0002.00,0001.61
2021-09-21 06:03:00,,0837.1,5.01,0.00,29.9,29.1,00.0,39.0,31.7,16.9,0000.0,0003.10,0002.02,0001.61
2021-09-21 06:04:00,,0837.2,5.01,0.00,29.9,29.1,00.0,39.0,31.7,16.9,0000.0,0003.05,0002.00,0001.61
2021-09-21 06:05:00,,0837.2,4.99,0.00,29.9,29.0,00.0,39.0,31.7,16.9,0000.0,0002.97,0001.98,0001.62
2021-09-21 06:06:00,,0837.2,5.00,0.00,29.9,29.0,00.0,39.0,31.6,16.9,0000.0,0003.00,0002.01,0001.65
2021-09-21 06:07:00,,0837.2,5.00,0.00,29.9,29.0,00.0,39.0,31.6,16.9,0000.0,0003.14,0002.03,0001.68
2021-09-21 06:08:00,,0837.2,5.01,0.00,29.9,29.0,00.0,39.0,31.6,16.9,0000.0,0005.05,0002.06,0001.69
2021-09-21 06:09:00,,0837.3,4.99,0.00,29.9,29.0,00.0,39.0,31.6,17.1,0000.0,0005.50,0002.10,0001.71
2021-09-21 06:10:00,,0837.3,5.00,0.00,29.9,29.1,00.0,39.0,31.6,17.3,0000.0,0005.57,0002.12,0001.74
2021-09-21 06:11:00,,0837.3,5.01,0.00,29.9,29.1,00.0,39.0,31.6,17.3,0000.0,0005.60,0002.12,0001.76
2021-09-21 06:12:00,,0837.4,4.99,0.00,29.9,29.1,00.0,39.0,31.6,17.2,0000.0,0006.41,0002.08,0001.77
2021-09-21 06:13:00,,0837.5,5.00,0.00,29.9,29.1,00.0,39.0,31.6,17.3,0000.0,0007.52,0002.05,0001.77
2021-09-21 06:14:00,,0837.4,5.01,0.00,29.9,29.1,00.0,39.0,31.6,17.2,0000.0,0007.53,0002.04,0001.78
2021-09-21 06:15:00,,0837.4,4.99,0.00,29.9,29.1,00.0,39.0,31.7,17.1,0000.0,0007.58,0002.08,0001.80
2021-09-21 06:16:00,,0837.4,4.99,0.00,29.9,29.1,00.0,39.0,31.7,17.1,0000.0,0007.57,0002.09,0001.82
2021-09-21 06:17:00,,0837.4,5.00,0.00,29.9,29.1,00.0,39.0,31.7,17.2,0000.0,0007.82,0002.10,0001.82
2021-09-21 06:18:00,,0837.5,5.01,0.00,29.9,29.1,00.0,39.0,31.7,17.2,0000.0,0008.54,0002.10,0001.82
2021-09-21 06:19:00,,0837.5,5.00,0.00,29.9,29.2,00.0,39.0,31.7,17.1,0000.0,0007.56,0002.10,0001.84
2021-09-21 06:20:00,,0837.5,4.99,0.00,30.0,29.1,00.0,39.0,31.7,16.8,0000.0,0007.26,0002.14,0001.86
2021-09-21 06:21:00,,0837.5,5.01,0.00,30.0,29.1,00.0,39.0,31.7,16.8,0000.0,0007.24,0002.14,0001.86
2021-09-21 06:22:00,,0837.5,5.00,0.00,30.0,29.1,00.0,39.0,31.7,17.0,0000.0,0007.30,0002.15,0001.87
2021-09-21 06:23:00,,0837.5,4.98,0.00,30.0,29.1,00.0,39.0,31.7,17.3,0000.0,0006.66,0002.18,0001.88
2021-09-21 06:24:00,,0837.5,5.01,0.00,29.9,29.1,00.0,39.0,31.7,17.4,0000.0,0005.48,0002.20,0001.89
2021-09-21 06:25:00,,0837.5,4.99,0.00,29.9,29.1,00.0,39.0,31.7,17.3,0000.0,0005.06,0002.20,0001.90
2021-09-21 06:26:00,,0837.5,5.01,0.00,29.9,29.1,00.0,39.0,31.6,17.2,0000.0,0005.08,0002.21,0001.91
2021-09-21 06:27:00,,0837.5,5.00,0.00,30.0,29.2,00.0,39.1,31.7,17.1,0000.0,0005.28,0002.24,0001.92
2021-09-21 06:28:00,,0837.5,4.98,0.00,30.0,29.2,00.0,39.1,31.7,17.1,0000.0,0005.38,0002.23,0001.93
2021-09-21 06:29:00,,0837.5,5.00,0.00,30.0,29.2,00.0,39.1,31.8,17.2,0000.0,0003.67,0002.25,0001.95
2021-09-21 06:30:00,,0837.5,5.02,0.00,30.0,29.2,00.0,39.1,31.7,17.0,0000.0,0003.82,0002.27,0001.95
2021-09-21 06:31:00,,0837.5,4.99,0.00,30.0,29.2,00.0,39.1,31.8,17.2,0000.0,0004.23,0002.27,0001.94
2021-09-21 06:32:00,,0837.5,5.00,0.00,30.0,29.2,00.0,39.1,31.8,17.3,0000.0,0004.47,0002.28,0001.94
2021-09-21 06:33:00,,0837.6,4.99,0.00,30.0,29.2,00.0,39.1,31.7,17.5,0000.0,0004.35,0002.26,0001.93
2021-09-21 06:34:00,,0837.6,5.00,0.00,30.0,29.1,00.0,39.1,31.7,17.7,0000.0,0004.23,0002.26,0001.92
2021-09-21 06:35:00,,0837.6,5.01,0.00,30.0,29.1,00.0,39.1,31.7,17.7,0000.0,0004.26,0002.26,0001.92
2021-09-21 06:36:00,,0837.6,5.00,0.00,30.0,29.1,00.0,39.1,31.7,17.8,0000.0,0004.26,0002.25,0001.91
2021-09-21 06:37:00,,0837.6,5.00,0.00,29.9,29.1,00.0,39.1,31.7,18.0,0000.0,0004.45,0002.29,0001.91
2021-09-21 06:38:00,,0837.5,5.00,0.00,29.9,29.1,00.0,39.1,31.7,17.8,0000.0,0004.52,0002.28,0001.89
2021-09-21 06:39:00,,0837.5,5.00,0.00,29.9,29.1,00.0,39.1,31.7,17.7,0000.0,0004.38,0002.26,0001.87
2021-09-21 06:40:00,,0837.5,5.00,0.00,29.9,29.1,00.0,39.0,31.7,18.2,0000.0,0005.85,0002.25,0001.86
2021-09-21 06:41:00,,0837.5,5.02,0.00,29.9,29.0,00.0,39.1,31.7,18.1,0000.0,0007.35,0002.21,0001.83
2021-09-21 06:42:00,,0837.5,4.99,0.00,29.9,29.1,00.0,39.0,31.6,18.2,0000.0,0007.04,0002.15,0001.81
2021-09-21 06:43:00,,0837.6,5.00,0.00,29.9,29.1,00.0,39.0,31.6,18.2,0000.0,0006.71,0002.09,0001.80
2021-09-21 06:44:00,,0837.7,5.00,0.00,29.9,29.1,00.0,39.0,31.6,18.3,0000.0,0006.74,0002.10,0001.79
2021-09-21 06:45:00,,0837.8,5.01,0.00,29.9,29.1,00.0,39.0,31.7,18.5,0000.0,0006.84,0002.14,0001.78
2021-09-21 06:46:00,,0837.7,4.99,0.00,29.9,29.1,00.0,39.0,31.6,18.5,0000.0,0006.72,0002.09,0001.77
2021-09-21 06:47:00,,0837.8,5.00,0.00,29.9,29.1,00.0,39.0,31.6,18.6,0000.0,0006.71,0002.08,0001.75
2021-09-21 06:48:00,,0837.8,5.01,0.00,29.9,29.1,00.0,39.0,31.6,18.6,0000.0,0006.55,0002.03,0001.74
2021-09-21 06:49:00,,0837.8,4.99,0.00,29.9,29.1,00.0,39.0,31.7,18.4,0000.0,0006.24,0001.99,0001.74
2021-09-21 06:50:00,,0837.8,5.01,0.00,29.9,29.1,00.0,39.0,31.7,18.3,0000.0,0006.25,0002.00,0001.74
2021-09-21 06:51:00,,0837.8,5.01,0.00,29.9,29.1,00.0,39.0,31.7,18.3,0000.0,0004.90,0002.00,0001.73
2021-09-21 06:52:00,,0837.8,4.99,0.00,30.0,29.1,00.0,39.0,31.7,18.4,0000.0,0003.04,0002.02,0001.74
2021-09-21 06:53:00,,0837.9,4.99,0.00,30.0,29.1,00.0,39.0,31.7,18.5,0000.0,0002.75,0002.02,0001.74
2021-09-21 06:54:00,,0837.8,5.00,0.00,30.0,29.1,00.0,39.1,31.7,18.5,0000.0,0002.76,0002.03,0001.74
2021-09-21 06:55:00,,0837.8,5.01,0.00,29.9,29.1,00.0,39.0,31.7,18.7,0000.0,0002.72,0002.02,0001.75
2021-09-21 06:56:00,,0837.8,4.99,0.00,30.0,29.1,00.0,39.0,31.7,18.6,0000.0,0002.68,0001.95,0001.73
2021-09-21 06:57:00,,0837.8,4.99,0.00,30.0,29.1,00.0,39.1,31.7,18.7,0000.0,0003.55,0001.98,0001.74
2021-09-21 06:58:00,,0837.8,5.01,0.00,30.0,29.1,00.0,39.1,31.7,18.8,0000.0,0003.65,0002.02,0001.76
2021-09-21 06:59:00,,0837.8,5.00,0.00,30.0,29.1,00.0,39.1,31.7,19.0,0000.0,0003.82,0002.05,0001.77
